Weather Roundup
Issued by NWS Chicago, IL

Home | Current Version | Previous Version | Graphics & Text | Print | Product List | Glossary On
Versions: 1 2 3 4 5 6 7 8 9 10 11 12 13 14 15 16 17 18 19 20 21 22 23 24 25 26 27 28 29 30 31 32 33 34 35 36 37 38 39 40 41 42 43 44 45 46 47 48 49 50
000
NZUS59 KLOT 280706
HRRLOT

CHICAGO AREA WEATHER ROUNDUP
NATIONAL WEATHER SERVICE CHICAGO/ROMEOVILLE IL
100 AM CST FRI NOV 28 2014

NOTE: "FAIR" INDICATES FEW OR NO CLOUDS BELOW 12,000 FEET WITH NO
SIGNIFICANT WEATHER AND/OR OBSTRUCTIONS TO VISIBILITY.

* THESE STATIONS ARE NOT UNDER NWS QUALITY CONTROL. THEY ALSO MAY NOT
  REPORT WEATHER SUCH AS PRECIPITATION OR FOG.

ILZ005-006-012>014-019>023-280800-
NORTHEAST ILLINOIS

CITY           SKY/WX    TMP DP  RH WIND       PRES   REMARKS
OHARE          MOCLDY    18  10  71 CALM      30.35F
MIDWAY         MOCLDY    21   9  59 CALM      30.36F
AURORA         MOCLDY    14   7  73 W5        30.37S WCI   6
LANSING*       PTCLDY    17  13  84 CALM      30.36F
JOLIET*        MOCLDY    16  10  78 CALM      30.38R
WAUKEGAN       MOCLDY    13   9  84 CALM      30.35F
DUPAGE AIRPORT MOCLDY    16  12  84 CALM      30.35F
WHEELING       MOCLDY    17  10  74 CALM      30.38F
KANKAKEE*      PTCLDY   N/A N/A N/A SW3       30.38R
MORRIS*        MOCLDY    16  13  88 W5        30.38R WCI   9
LEWIS AIRPORT* MOCLDY    16  12  85 W5        30.37R WCI   9
NORTHERLY IS     N/A     20   9  62 S3          N/A
$$

WIZ051-052-058>065-066-070>072-280800-
SOUTHEAST WISCONSIN

CITY           SKY/WX    TMP DP  RH WIND       PRES   REMARKS
MILWAUKEE      MOCLDY    14   7  73 NW3       30.35F
KENOSHA*       MOCLDY    11   8  88 CALM      30.35F
RACINE*        MOCLDY    13   8  81 W3        30.37F
BURLINGTON     MOCLDY    10   7  88 CALM      30.34F
WAUKESHA       MOCLDY    10   9  92 CALM      30.34F
WEST BEND      MOCLDY    10   5  79 CALM      30.32F
$$

INZ001>003-010>013-019-020-280800-
NORTHWEST INDIANA

CITY           SKY/WX    TMP DP  RH WIND       PRES   REMARKS
GARY*          PTCLDY    21  13  71 CALM      30.37F
MICHIGAN CITY* NOT AVBL
RENSSELAER*    NOT AVBL
VALPARAISO     MOCLDY    18  12  77 CALM      30.35F
$$

LMZ740>746-280800-
SOUTHERN LAKE MICHIGAN

STATION/POSITION TIME  SKY/WX   TEMP WIND        PRES    VSBY
                                AIR  DIR/SP/G
                 (UTC)          (F)  (DEG/KT/KT) (MB)    (MI)
HARRISON CRIB    0700            20   CALM  /  1   N/A
BURNHAM HARBOR   0700            20  160/  2/  4   N/A
CALUMET HARBOR   0700            20  310/  2/  3 1026.7F
BURNS HARBOR     NOT AVBL
MICHIGAN CITY    0700            23  170/  6/  8   N/A
$$

ABBREVIATIONS USED IN REMARKS
   TC - TEMPERATURE IN CELSIUS
  WCI - WIND CHILL INDEX
   HX - HEAT INDEX
  VSB - VISIBILITY
$$


USA.gov is the U.S. government's official web portal to all federal, state and local government web resources and services.